Location: Newark
(52.8300°N, 8.0000°E)
Time: 15:59:31
(UTC+00:00)

STARLINK-1124 - Pass Details

Date: 29 January 2020
Orbit: 348 x 351 km, 53.0° (Epoch: 19 February)

Event Time Altitude Azimuth Distance (km) Brightness Sun altitude
Rises 17:47:23 0° 284° (WNW) 2,157 8.0 -15.1°
Reaches altitude 10° 17:49:29 10° 275° (W) 1,313 6.8 -15.4°
Maximum altitude 17:52:12 35° 207° (SSW) 581 4.1 -15.9°
Enters shadow 17:53:44 20° 151° (SSE) 882 4.5 -16.1°
